Location: Newark
(27.9675°N, 86.8869°E)
Time: 04:56:23
(UTC+00:00)

Altair - All Passes

Search period start: 23 October 2019 00:00
Search period end: 02 November 2019 00:00
Orbit: 1501 x 1682 km, 47.2° (Epoch: 22 October)

Date Brightness Start Highest point End Pass type
(mag) Time Alt. Az. Time Alt. Az. Time Alt. Az.
23 Oct - 01:08:46 10° SSE 01:14:34 18° ESE 01:20:25 10° E daylight
23 Oct - 03:08:58 10° SW 03:18:15 83° SE 03:27:54 10° NE daylight
23 Oct - 05:15:20 10° W 05:23:48 36° NNW 05:32:37 10° NE daylight
23 Oct - 07:24:00 10° NW 07:31:29 24° N 07:39:10 10° NE daylight
23 Oct - 09:30:01 10° NW 09:39:07 39° NNE 09:48:23 10° E daylight
23 Oct - 11:34:38 10° NW 11:44:42 79° SW 11:54:51 10° SE daylight
23 Oct - 13:42:17 10° W 13:48:36 19° WSW 13:54:56 10° SSW visible
24 Oct - 00:44:30 10° SSE 00:49:30 16° ESE 00:54:33 10° E daylight
24 Oct - 02:43:52 10° SW 02:53:06 76° SE 03:02:40 10° NE daylight
24 Oct - 04:49:54 10° W 04:58:30 38° NNW 05:07:24 10° NE daylight
24 Oct - 06:58:37 10° NW 07:06:03 24° N 07:13:41 10° NE daylight
24 Oct - 09:04:50 10° NW 09:13:46 36° NNE 09:22:53 10° E daylight
24 Oct - 11:09:25 10° NW 11:19:30 85° SW 11:29:42 10° SE daylight
24 Oct - 13:16:32 10° W 13:23:30 21° SW 13:30:29 10° S visible
25 Oct - 00:20:28 10° SSE 00:24:27 13° ESE 00:28:26 10° E daylight
25 Oct - 02:18:50 10° SW 02:27:58 70° SE 02:37:25 10° NE daylight
25 Oct - 04:24:31 10° W 04:33:11 40° NNW 04:42:11 10° NE daylight
25 Oct - 06:33:13 10° NW 06:40:37 24° N 06:48:14 10° NE daylight
25 Oct - 08:39:38 10° NW 08:48:24 34° NNE 08:57:21 10° E daylight
25 Oct - 10:44:13 10° NW 10:54:18 89° NE 11:04:30 10° SE daylight
25 Oct - 12:50:53 10° WNW 12:58:23 24° SW 13:05:55 10° S visible
25 Oct - 23:56:59 10° SE 23:59:23 11° ESE 00:01:47 10° ESE visible
26 Oct - 01:53:48 10° SSW 02:02:50 63° SE 02:12:10 10° NE daylight
26 Oct - 03:59:08 10° W 04:07:53 43° NNW 04:16:59 10° NE daylight
26 Oct - 06:07:48 10° NW 06:15:11 24° N 06:22:48 10° NE daylight
26 Oct - 08:14:27 10° NW 08:23:03 33° NNE 08:31:49 10° E daylight
26 Oct - 10:19:01 10° NW 10:29:05 83° NE 10:39:17 10° SE daylight
26 Oct - 12:25:19 10° WNW 12:33:16 27° SW 12:41:16 10° S visible
27 Oct - 01:28:48 10° SSW 01:37:44 57° SE 01:46:54 10° ENE daylight
27 Oct - 03:33:47 10° WSW 03:42:37 46° NNW 03:51:47 10° NE daylight
27 Oct - 05:42:21 10° WNW 05:49:45 24° N 05:57:22 10° NE daylight
27 Oct - 07:49:15 10° NW 07:57:40 31° NNE 08:06:16 10° E daylight
27 Oct - 09:53:51 10° NW 10:03:51 77° NE 10:14:02 10° SE daylight
27 Oct - 11:59:49 10° WNW 12:08:09 30° SW 12:16:32 10° S visible
28 Oct - 01:03:50 10° SSW 01:12:37 52° SE 01:21:37 10° ENE daylight
28 Oct - 03:08:27 10° WSW 03:17:21 49° NNW 03:26:36 10° NE daylight
28 Oct - 05:16:54 10° WNW 05:24:20 25° N 05:31:59 10° NE daylight
28 Oct - 07:24:03 10° NW 07:32:17 30° NNE 07:40:43 10° ENE daylight
28 Oct - 09:28:41 10° NW 09:38:37 71° NE 09:48:45 10° ESE daylight
28 Oct - 11:34:22 10° WNW 11:43:01 34° SW 11:51:44 10° S daylight
29 Oct - 00:38:55 10° SSW 00:47:32 46° SE 00:56:19 10° ENE daylight
29 Oct - 02:43:08 10° WSW 02:52:06 53° NW 03:01:25 10° NE daylight
29 Oct - 04:51:27 10° WNW 04:58:56 25° N 05:06:38 10° NE daylight
29 Oct - 06:58:49 10° NW 07:06:53 28° NNE 07:15:09 10° ENE daylight
29 Oct - 09:03:32 10° NW 09:13:22 66° NE 09:23:26 10° ESE daylight
29 Oct - 11:08:58 10° WNW 11:17:52 38° SW 11:26:55 10° SSE daylight
30 Oct - 00:14:01 10° SSW 00:22:26 42° SE 00:31:00 10° ENE daylight
30 Oct - 02:17:51 10° WSW 02:26:52 57° NW 02:36:14 10° NE daylight
30 Oct - 04:25:59 10° WNW 04:33:31 26° NNW 04:41:18 10° NE daylight
30 Oct - 06:33:36 10° NW 06:41:29 27° NNE 06:49:35 10° ENE daylight
30 Oct - 08:38:22 10° NW 08:48:07 61° NE 08:58:07 10° ESE daylight
30 Oct - 10:43:36 10° WNW 10:52:44 42° SW 11:02:01 10° SSE daylight
30 Oct - 23:49:11 10° SSW 23:57:21 37° SE 00:05:38 10° ENE visible
31 Oct - 01:52:34 10° WSW 02:01:39 62° NW 02:11:03 10° NE daylight
31 Oct - 04:00:31 10° WNW 04:08:08 27° NNW 04:15:59 10° NE daylight
31 Oct - 06:08:21 10° NW 06:16:05 26° NNE 06:24:01 10° ENE daylight
31 Oct - 08:13:13 10° NW 08:22:51 57° NE 08:32:45 10° ESE daylight
31 Oct - 10:18:17 10° WNW 10:27:35 46° SW 10:37:05 10° SSE daylight
31 Oct - 23:24:23 10° S 23:32:16 33° SE 23:40:15 10° ENE visible
01 Nov - 01:27:20 10° WSW 01:36:27 67° NW 01:45:52 10° NE daylight
01 Nov - 03:35:04 10° WNW 03:42:45 28° NNW 03:50:41 10° NE daylight
01 Nov - 05:43:05 10° NW 05:50:40 25° N 05:58:28 10° ENE daylight
01 Nov - 07:48:04 10° NW 07:57:35 53° NNE 08:07:21 10° ESE daylight
01 Nov - 09:52:58 10° WNW 10:02:26 51° SW 10:12:06 10° SSE daylight
01 Nov - 22:59:38 10° S 23:07:12 30° SE 23:14:49 10° ENE visible
